Weather History for Jamestown, NY

Change the Weather History Date:

Monday, March 12, 2012

  Actual Average Record
Temperature  
Mean Temperature 50 °F -  
Max Temperature 60 °F 38 °F 70 °F (1977)
Min Temperature 41 °F 18 °F -20 °F (1984)
Degree Days  
Heating Degree Days 14    
Moisture  
Dew Point 31 °F    
Average Humidity 55    
Maximum Humidity 93    
Minimum Humidity 31    
Precipitation  
Precipitation 0.00 in - - ()
Sea Level Pressure  
Sea Level Pressure 30.20 in    
Wind  
Wind Speed 6 mph (South)    
Max Wind Speed 15 mph    
Max Gust Speed 20 mph    
Visibility 10 miles    
Events      
Averages and records for this station are not official NWS values.
T = Trace of Precipitation, MM = Missing Value Source: NWS Daily Summary

Daily Weather History Graph

Daily Weather History Graph

Search for Another Location

Airport:

Trip Planner

Search our weather history database for the weather conditions in past years. The results will help you decide how hot, cold, wet, or windy it might be!

Date:

Astronomy

Mar. 12, 2012 Rise Set
Actual Time 7:33 AM EDT 7:20 PM EDT
Civil Twilight 7:05 AM EDT 7:48 PM EDT
Nautical Twilight 6:32 AM EDT 8:21 PM EDT
Astronomical Twilight 6:00 AM EDT 8:53 PM EDT
Moon No Moon Rise 9:46 AM EDT (3/12)
Length of Visible Light 12h 43m
Length of Day
11h 47m
Waning Gibbous, 76% of the Moon is Illuminated
Mar 12
Waning Gibbous
Mar 14
Last Quarter
Mar 22
New
Mar 30
First Quarter
Apr 6
Full

Hourly Weather History & Observations

Time (EDT) Temp. Windchill Dew Point Humidity Pressure Visibility Wind Dir Wind Speed Gust Speed Precip Events Conditions
12:15 AM 50.0 °F - 24.8 °F 37% 30.29 in 10.0 mi SSW 3.5 mph - N/A   Clear
12:35 AM 50.0 °F - 24.8 °F 37% 30.28 in 10.0 mi South 3.5 mph - N/A   Clear
12:55 AM 50.0 °F - 24.8 °F 37% 30.28 in 10.0 mi Calm Calm - N/A   Clear
1:15 AM 46.4 °F - 23.0 °F 40% 30.28 in 10.0 mi Calm Calm - N/A   Clear
1:35 AM 46.4 °F 43.5 °F 24.8 °F 43% 30.28 in 10.0 mi South 5.8 mph - N/A   Clear
1:55 AM 48.2 °F - 24.8 °F 40% 30.28 in 10.0 mi South 4.6 mph - N/A   Clear
2:15 AM 46.4 °F 44.3 °F 24.8 °F 43% 30.28 in 10.0 mi South 4.6 mph - N/A   Clear
2:35 AM 46.4 °F 44.3 °F 23.0 °F 40% 30.28 in 10.0 mi South 4.6 mph - N/A   Clear
2:55 AM 46.4 °F 45.2 °F 24.8 °F 43% 30.27 in 10.0 mi South 3.5 mph - N/A   Clear
3:15 AM 44.6 °F 42.2 °F 23.0 °F 43% 30.27 in 10.0 mi South 4.6 mph - N/A   Clear
3:35 AM 44.6 °F 42.2 °F 24.8 °F 46% 30.26 in 10.0 mi South 4.6 mph - N/A   Clear
3:55 AM 44.6 °F 43.1 °F 24.8 °F 46% 30.25 in 10.0 mi SSE 3.5 mph - N/A   Clear
4:15 AM 44.6 °F 41.4 °F 24.8 °F 46% 30.26 in 10.0 mi South 5.8 mph - N/A   Clear
4:35 AM 44.6 °F 41.4 °F 24.8 °F 46% 30.26 in 10.0 mi South 5.8 mph - N/A   Clear
4:55 AM 44.6 °F 42.2 °F 24.8 °F 46% 30.26 in 10.0 mi South 4.6 mph - N/A   Clear
5:55 AM 41.0 °F 37.1 °F 24.8 °F 53% 30.25 in 10.0 mi South 5.8 mph - N/A   Clear
6:15 AM 41.0 °F 37.1 °F 24.8 °F 53% 30.25 in 10.0 mi South 5.8 mph - N/A   Clear
6:35 AM 42.8 °F 39.3 °F 24.8 °F 49% 30.25 in 10.0 mi South 5.8 mph - N/A   Clear
6:55 AM 41.0 °F 37.1 °F 24.8 °F 53% 30.24 in 10.0 mi South 5.8 mph - N/A   Clear
7:15 AM 41.0 °F 37.1 °F 24.8 °F 53% 30.24 in 10.0 mi South 5.8 mph - N/A   Clear
7:35 AM 41.0 °F 36.4 °F 24.8 °F 53% 30.24 in 10.0 mi South 6.9 mph - N/A   Clear
7:55 AM 41.0 °F 36.4 °F 24.8 °F 53% 30.24 in 10.0 mi South 6.9 mph - N/A   Clear
8:15 AM 41.0 °F 36.4 °F 24.8 °F 53% 30.23 in 10.0 mi South 6.9 mph - N/A   Clear
8:35 AM 42.8 °F 38.6 °F 26.6 °F 53% 30.24 in 10.0 mi South 6.9 mph - N/A   Clear
8:55 AM 44.6 °F 40.7 °F 26.6 °F 49% 30.24 in 10.0 mi South 6.9 mph - N/A   Clear
9:15 AM 44.6 °F 40.7 °F 26.6 °F 49% 30.23 in 10.0 mi South 6.9 mph - N/A   Clear
9:35 AM 46.4 °F 41.9 °F 26.6 °F 46% 30.24 in 10.0 mi South 9.2 mph - N/A   Clear
9:55 AM 46.4 °F 41.9 °F 26.6 °F 46% 30.23 in 10.0 mi South 9.2 mph - N/A   Clear
10:15 AM 48.2 °F - 26.6 °F 43% 30.23 in 10.0 mi South 8.1 mph - N/A   Clear
10:35 AM 50.0 °F - 28.4 °F 43% 30.22 in 10.0 mi South 8.1 mph - N/A   Clear
10:55 AM 51.8 °F - 28.4 °F 41% 30.22 in 10.0 mi South 6.9 mph - N/A   Clear
11:15 AM 53.6 °F - 28.4 °F 38% 30.21 in 10.0 mi South 5.8 mph - N/A   Clear
11:35 AM 55.4 °F - 28.4 °F 36% 30.21 in 10.0 mi SSE 6.9 mph - N/A   Partly Cloudy
11:55 AM 57.2 °F - 28.4 °F 33% 30.19 in 10.0 mi South 9.2 mph - N/A   Partly Cloudy
12:15 PM 59.0 °F - 30.2 °F 34% 30.19 in 10.0 mi SSW 9.2 mph - N/A   Mostly Cloudy
12:35 PM 59.0 °F - 28.4 °F 31% 30.18 in 10.0 mi SSW 12.7 mph 19.6 mph N/A   Mostly Cloudy
12:55 PM 59.0 °F - 30.2 °F 34% 30.17 in 10.0 mi South 15.0 mph - N/A   Mostly Cloudy
1:15 PM 60.8 °F - 32.0 °F 34% 30.16 in 10.0 mi South 11.5 mph - N/A   Overcast
1:35 PM 59.0 °F - 33.8 °F 39% 30.16 in 10.0 mi South 11.5 mph 16.1 mph N/A   Overcast
1:55 PM 59.0 °F - 33.8 °F 39% 30.15 in 10.0 mi SSW 9.2 mph 17.3 mph N/A   Overcast
2:15 PM 57.2 °F - 35.6 °F 44% 30.15 in 10.0 mi SW 13.8 mph - N/A   Overcast
2:55 PM 51.8 °F - 39.2 °F 62% 30.14 in 10.0 mi SW 11.5 mph - N/A   Overcast
3:15 PM 48.2 °F - 41.0 °F 76% 30.14 in 7.0 mi SW 9.2 mph - N/A   Overcast
3:35 PM 48.2 °F - 42.8 °F 82% 30.13 in 8.0 mi SSW 9.2 mph - N/A   Overcast
3:55 PM 48.2 °F - 42.8 °F 82% 30.13 in 6.0 mi South 10.4 mph - N/A   Overcast
4:15 PM 46.4 °F 40.7 °F 44.6 °F 93% 30.12 in 8.0 mi South 12.7 mph 17.3 mph N/A   Overcast
4:35 PM 46.4 °F 41.1 °F 42.8 °F 87% 30.11 in 10.0 mi South 11.5 mph - N/A   Overcast
4:55 PM 46.4 °F 40.7 °F 44.6 °F 93% 30.10 in 10.0 mi South 12.7 mph - N/A   Overcast
5:15 PM 46.4 °F 41.1 °F 44.6 °F 93% 30.10 in 10.0 mi South 11.5 mph 18.4 mph N/A   Overcast
5:35 PM 46.4 °F 41.5 °F 44.6 °F 93% 30.08 in 9.0 mi South 10.4 mph - N/A   Overcast
5:55 PM 48.2 °F - 44.6 °F 87% 30.08 in 10.0 mi South 10.4 mph - N/A   Overcast
6:15 PM 48.2 °F - 46.4 °F 93% 30.08 in 7.0 mi South 10.4 mph - N/A   Overcast
6:35 PM 48.2 °F - 46.4 °F 93% 30.05 in 10.0 mi South 10.4 mph - N/A   Overcast
6:55 PM 48.2 °F - 46.4 °F 93% 30.07 in 10.0 mi South 12.7 mph - N/A   Overcast
7:15 PM 48.2 °F - 46.4 °F 93% 30.06 in 10.0 mi South 11.5 mph - N/A   Overcast
7:35 PM 48.2 °F - 46.4 °F 93% 30.05 in 8.0 mi SSW 10.4 mph - N/A   Overcast
7:55 PM 48.2 °F - 46.4 °F 93% 30.05 in 5.0 mi South 9.2 mph - N/A   Overcast
8:35 PM 48.2 °F - 48.2 °F 100% 30.04 in 10.0 mi South 10.4 mph - N/A   Overcast
8:55 PM 50.0 °F - 48.2 °F 94% 30.04 in 9.0 mi South 8.1 mph - N/A   Overcast
9:15 PM 50.0 °F - 48.2 °F 94% 30.03 in 7.0 mi South 10.4 mph - N/A   Overcast
9:35 PM 50.0 °F - 48.2 °F 94% 30.02 in 8.0 mi South 12.7 mph - N/A   Overcast
9:55 PM 50.0 °F - 48.2 °F 94% 30.01 in 10.0 mi South 10.4 mph - N/A   Overcast
10:15 PM 50.0 °F - 48.2 °F 94% 30.00 in 10.0 mi South 13.8 mph 19.6 mph N/A   Overcast
10:55 PM 51.8 °F - 48.2 °F 88% 29.99 in 10.0 mi South 16.1 mph 20.7 mph N/A   Overcast
11:15 PM 51.8 °F - 50.0 °F 94% 29.98 in 10.0 mi South 15.0 mph - N/A   Overcast
11:35 PM 51.8 °F - 50.0 °F 94% 29.98 in 10.0 mi South 15.0 mph - N/A   Overcast
11:55 PM 51.8 °F - 50.0 °F 94% 29.97 in 10.0 mi South 13.8 mph 18.4 mph N/A   Overcast